When you browse on this site, cookies collect data to enhance your experience and personalize the content and advertising you see.
Visit our Privacy Policy to learn more. By continuing to use the site, you agree to this use of cookies and data.
  • In Austria
  • List of Countries
  • For 7 days
  • Water Temperature
  • Satellite Maps
  • Weather Map
  • News
  • Weather Widgets
  • user-avatar
    Login

    Hourly Weather Coimbra

    Today, 25 May, Saturday

    Time Temperature Precipitation Wind Pressure Humidity
    00:00 +15°C° 0 mm 2 mps 756 mmHg 70%
    01:00 +15°C° 0 mm 2 mps 756 mmHg 68%
    02:00 +15°C° 0 mm 2 mps 756 mmHg 66%
    03:00 +15°C° 0 mm 2 mps 757 mmHg 66%
    04:00 +15°C° 0 mm 2 mps 757 mmHg 66%
    05:00 +14°C° 0 mm 2 mps 757 mmHg 66%
    06:00 +17°C° 0 mm 2 mps 757 mmHg 59%
    07:00 +19°C° 0 mm 3 mps 758 mmHg 51%
    08:00 +22°C° 0 mm 3 mps 758 mmHg 43%
    09:00 +25°C° 0 mm 3 mps 758 mmHg 39%
    10:00 +26°C° 0 mm 3 mps 757 mmHg 35%
    11:00 +28°C° 0 mm 3 mps 757 mmHg 31%
    12:00 +28°C° 0 mm 3 mps 757 mmHg 31%
    13:00 +29°C° 0 mm 4 mps 757 mmHg 31%
    14:00 +29°C° 0 mm 4 mps 756 mmHg 31%
    15:00 +28°C° 0 mm 4 mps 756 mmHg 36%
    16:00 +27°C° 0 mm 4 mps 756 mmHg 41%
    17:00 +26°C° 0 mm 4 mps 756 mmHg 46%
    18:00 +22°C° 0 mm 3 mps 756 mmHg 55%
    19:00 +20°C° 0 mm 2 mps 756 mmHg 65%
    20:00 +19°C° 0 mm 1 mps 757 mmHg 74%
    21:00 +18°C° 0 mm 1 mps 757 mmHg 75%
    22:00 +18°C° 0 mm 1 mps 757 mmHg 76%
    23:00 +18°C° 0 mm 1 mps 757 mmHg 77%

    Tomorrow, 26 May, Sunday

    Time Temperature Precipitation Wind Pressure Humidity
    00:00 +18°C° 0 mm 1 mps 757 mmHg 76%
    01:00 +18°C° 0 mm 1 mps 757 mmHg 75%
    02:00 +16°C° 0 mm 2 mps 757 mmHg 75%
    03:00 +16°C° 0 mm 2 mps 757 mmHg 71%
    04:00 +16°C° 0 mm 2 mps 757 mmHg 68%
    05:00 +16°C° 0 mm 2 mps 757 mmHg 65%
    06:00 +19°C° 0 mm 2 mps 757 mmHg 57%
    07:00 +22°C° 0 mm 3 mps 757 mmHg 48%
    08:00 +25°C° 0 mm 3 mps 757 mmHg 40%
    09:00 +27°C° 0 mm 3 mps 757 mmHg 37%
    10:00 +28°C° 0 mm 3 mps 757 mmHg 35%
    11:00 +30°C° 0 mm 3 mps 757 mmHg 32%
    12:00 +30°C° 0 mm 4 mps 756 mmHg 32%
    13:00 +30°C° 0 mm 4 mps 756 mmHg 33%
    14:00 +30°C° 0 mm 4 mps 756 mmHg 33%
    15:00 +29°C° 0 mm 4 mps 755 mmHg 38%
    16:00 +28°C° 0 mm 4 mps 755 mmHg 43%
    17:00 +26°C° 0 mm 4 mps 755 mmHg 48%
    18:00 +24°C° 0 mm 3 mps 755 mmHg 57%
    19:00 +21°C° 0 mm 2 mps 755 mmHg 66%
    20:00 +19°C° 0 mm 1 mps 756 mmHg 75%
    21:00 +19°C° 0 mm 1 mps 756 mmHg 77%
    22:00 +18°C° 0 mm 1 mps 756 mmHg 80%
    23:00 +18°C° 0 mm 1 mps 755 mmHg 82%

    Day after tomorrow, 27 May, Monday

    Time Temperature Precipitation Wind Pressure Humidity
    00:00 +18°C° 0 mm 1 mps 755 mmHg 83%
    01:00 +16°C° 0 mm 1 mps 755 mmHg 83%
    02:00 +16°C° 0 mm 1 mps 755 mmHg 84%
    03:00 +16°C° 0 mm 1 mps 755 mmHg 83%
    04:00 +16°C° 0 mm 1 mps 755 mmHg 83%
    05:00 +18°C° 0 mm 1 mps 755 mmHg 82%
    06:00 +20°C° 0 mm 1 mps 755 mmHg 71%
    07:00 +23°C° 0 mm 2 mps 755 mmHg 61%
    08:00 +25°C° 0 mm 2 mps 755 mmHg 51%
    09:00 +27°C° 0 mm 3 mps 755 mmHg 48%
    10:00 +28°C° 0 mm 3 mps 754 mmHg 44%
    11:00 +29°C° 0 mm 4 mps 754 mmHg 41%
    12:00 +29°C° 0 mm 4 mps 754 mmHg 42%
    13:00 +29°C° 0 mm 5 mps 753 mmHg 43%
    14:00 +28°C° 0 mm 5 mps 752 mmHg 44%
    15:00 +27°C° 0 mm 5 mps 752 mmHg 49%
    16:00 +26°C° 0 mm 4 mps 752 mmHg 54%
    17:00 +23°C° 0 mm 4 mps 752 mmHg 59%
    18:00 +21°C° 0 mm 3 mps 752 mmHg 67%
    19:00 +19°C° 0 mm 2 mps 753 mmHg 75%
    20:00 +18°C° 0 mm 1 mps 753 mmHg 83%
    21:00 +18°C° 0 mm 1 mps 753 mmHg 84%
    22:00 +18°C° 0 mm 1 mps 753 mmHg 85%
    23:00 +18°C° 0 mm 1 mps 753 mmHg 86%

    28 May, Tuesday

    Time Temperature Precipitation Wind Pressure Humidity
    00:00 +18°C° 0 mm 1 mps 753 mmHg 84%
    01:00 +17°C° 0 mm 2 mps 753 mmHg 82%
    02:00 +17°C° 0 mm 2 mps 753 mmHg 81%
    03:00 +17°C° 0 mm 2 mps 753 mmHg 78%
    04:00 +17°C° 0 mm 2 mps 753 mmHg 75%
    05:00 +17°C° 0 mm 3 mps 753 mmHg 72%
    06:00 +20°C° 0 mm 3 mps 754 mmHg 63%
    07:00 +22°C° 0 mm 3 mps 754 mmHg 54%
    08:00 +25°C° 0 mm 3 mps 754 mmHg 45%
    09:00 +27°C° 0 mm 3 mps 754 mmHg 41%
    10:00 +29°C° 0 mm 3 mps 754 mmHg 38%
    11:00 +30°C° 0 mm 4 mps 754 mmHg 34%
    12:00 +30°C° 0 mm 4 mps 754 mmHg 33%
    13:00 +32°C° 0 mm 4 mps 754 mmHg 31%
    14:00 +32°C° 0 mm 4 mps 753 mmHg 30%
    15:00 +30°C° 0 mm 4 mps 753 mmHg 32%
    16:00 +29°C° 0 mm 4 mps 753 mmHg 35%
    17:00 +28°C° 0 mm 4 mps 753 mmHg 37%
    18:00 +26°C° 0 mm 3 mps 754 mmHg 42%
    19:00 +24°C° 0 mm 3 mps 754 mmHg 47%
    20:00 +20°C° 0 mm 2 mps 755 mmHg 52%
    21:00 +20°C° 0 mm 2 mps 755 mmHg 53%
    22:00 +19°C° 0 mm 2 mps 755 mmHg 53%
    23:00 +19°C° 0 mm 3 mps 755 mmHg 53%

    29 May, Wednesday

    Time Temperature Precipitation Wind Pressure Humidity
    00:00 +19°C° 0 mm 3 mps 756 mmHg 54%
    01:00 +18°C° 0 mm 3 mps 756 mmHg 54%
    02:00 +18°C° 0 mm 3 mps 756 mmHg 55%
    03:00 +17°C° 0 mm 3 mps 756 mmHg 55%
    04:00 +17°C° 0 mm 3 mps 757 mmHg 55%
    05:00 +16°C° 0 mm 3 mps 757 mmHg 55%
    06:00 +18°C° 0 mm 4 mps 757 mmHg 47%
    07:00 +20°C° 0 mm 4 mps 758 mmHg 40%
    08:00 +22°C° 0 mm 4 mps 758 mmHg 33%
    09:00 +25°C° 0 mm 4 mps 758 mmHg 29%
    10:00 +27°C° 0 mm 4 mps 758 mmHg 26%
    11:00 +29°C° 0 mm 4 mps 757 mmHg 22%
    12:00 +30°C° 0 mm 4 mps 757 mmHg 22%
    13:00 +30°C° 0 mm 4 mps 757 mmHg 21%
    14:00 +32°C° 0 mm 4 mps 756 mmHg 20%
    15:00 +30°C° 0 mm 4 mps 756 mmHg 23%
    16:00 +30°C° 0 mm 4 mps 756 mmHg 25%
    17:00 +29°C° 0 mm 4 mps 756 mmHg 27%
    18:00 +27°C° 0 mm 3 mps 757 mmHg 32%
    19:00 +24°C° 0 mm 3 mps 757 mmHg 37%
    20:00 +20°C° 0 mm 2 mps 757 mmHg 42%
    21:00 +20°C° 0 mm 2 mps 758 mmHg 43%
    22:00 +19°C° 0 mm 2 mps 758 mmHg 44%
    23:00 +18°C° 0 mm 2 mps 758 mmHg 45%

    30 May, Thursday

    Time Temperature Precipitation Wind Pressure Humidity
    00:00 +18°C° 0 mm 3 mps 758 mmHg 43%
    01:00 +17°C° 0 mm 3 mps 758 mmHg 42%
    02:00 +17°C° 0 mm 3 mps 758 mmHg 40%
    03:00 +17°C° 0 mm 3 mps 759 mmHg 41%
    04:00 +17°C° 0 mm 3 mps 759 mmHg 42%
    05:00 +16°C° 0 mm 3 mps 759 mmHg 42%
    06:00 +19°C° 0 mm 3 mps 759 mmHg 38%
    07:00 +21°C° 0 mm 3 mps 759 mmHg 33%
    08:00 +25°C° 0 mm 3 mps 759 mmHg 28%
    09:00 +27°C° 0 mm 3 mps 759 mmHg 25%
    10:00 +29°C° 0 mm 3 mps 759 mmHg 22%
    11:00 +31°C° 0 mm 3 mps 759 mmHg 18%
    12:00 +33°C° 0 mm 3 mps 758 mmHg 18%
    13:00 +33°C° 0 mm 3 mps 758 mmHg 17%
    14:00 +34°C° 0 mm 3 mps 758 mmHg 17%
    15:00 +33°C° 0 mm 3 mps 757 mmHg 20%
    16:00 +31°C° 0 mm 3 mps 757 mmHg 23%
    17:00 +31°C° 0 mm 3 mps 757 mmHg 26%
    18:00 +28°C° 0 mm 3 mps 757 mmHg 32%
    19:00 +25°C° 0 mm 2 mps 757 mmHg 37%
    20:00 +21°C° 0 mm 2 mps 758 mmHg 43%
    21:00 +21°C° 0 mm 2 mps 758 mmHg 42%
    22:00 +20°C° 0 mm 2 mps 758 mmHg 42%
    23:00 +20°C° 0 mm 2 mps 758 mmHg 41%
    Show more